Voltar ao catálogo

HISPASAT 1B

AtivoComunicaçõesGEO
NORAD 22723·PAYLOAD·🇪🇸 Spain

Lançado Jul 22, 1993 de Guiana Space Centre

Loading…

TLE

AtualizadoSource: Space-Track

Época: Sep 13, 2026, 17:51 UTC

1 22723U 93048A   26256.74398125 -.00000351  00000-0  00000-0 0  9990
2 22723  13.7952  12.4260 0002991 284.7508  85.6785  0.99724123120723

Acompanhe HISPASAT 1B em tempo real com AllMySat

Download on the App Store